Volver al catálogo

FALCON 9 R/B

ActivoHEO
NORAD 58964·ROCKET BODY·🇺🇸 United States

Lanzado Feb 15, 2024 desde Cape Canaveral Space Force Station

Loading…

Próximos Pases (próximas 24 horas)

TLE

ObsoletoSource: Space-Track

Época: Feb 15, 2024, 06:40 UTC

1 58964U 24030B   24046.27792824 -.00014702  00000-0  00000-0 0  9993
2 58964  28.5100  65.0800 9704700 239.9600   5.0000  0.08200507    02

Sigue FALCON 9 R/B en tiempo real con AllMySat

Download on the App Store